Вернуться в каталог

SPACEMOBILE-SSR04 DEB

АктивенVLEO
NORAD 62372·DEBRIS·🇺🇸 United States

Запущен Sep 12, 2024 с Cape Canaveral Space Force Station

Loading…

Ближайшие Пролёты (ближайшие 24 часа)

TLE

СвежийSource: Space-Track

Эпоха: Sep 14, 2026, 06:47 UTC

1 62372U 24163J   26257.28293017  .00012261  00000-0  29010-3 0  9997
2 62372  52.9839 208.3645 0006666  93.9568 266.2198 15.42213038108697

Отслеживайте SPACEMOBILE-SSR04 DEB в реальном времени с AllMySat

Download on the App Store